�������l�o���
Date,Time,MP-1(��Sv/h),MP-2(��Sv/h),MP-3(��Sv/h),MP-4(��Sv/h),MP-5(��Sv/h),MP-6(��Sv/h),MP-7(��Sv/h),MP-8(��Sv/h),����,����(m/s),���J
2021/03/30,00:00,0.624,0.910,0.583,1.117,0.790,0.372,0.647,0.610,�k��,7.3,��
2021/03/30,00:10,0.625,0.910,0.583,1.120,0.792,0.370,0.649,0.609,�k��,8.9,��
2021/03/30,00:20,0.625,0.910,0.583,1.120,0.792,0.371,0.648,0.608,�k��,6.7,��
2021/03/30,00:30,0.625,0.912,0.583,1.119,0.792,0.371,0.649,0.609,�k��,4.3,��
2021/03/30,00:40,0.624,0.910,0.583,1.120,0.792,0.371,0.647,0.609,�k��,4.5,��
2021/03/30,00:50,0.625,0.911,0.584,1.120,0.790,0.370,0.648,0.608,�k��,4.8,��
2021/03/30,01:00,0.626,0.911,0.583,1.122,0.791,0.372,0.649,0.610,�k��,5.2,��
2021/03/30,01:10,0.624,0.910,0.585,1.123,0.792,0.371,0.647,0.610,�k��,5.7,��
2021/03/30,01:20,0.626,0.909,0.584,1.121,0.793,0.371,0.648,0.610,�k��,5.1,��
2021/03/30,01:30,0.626,0.910,0.585,1.121,0.794,0.371,0.649,0.609,�k��,6.1,��
2021/03/30,01:40,0.627,0.911,0.584,1.120,0.792,0.370,0.649,0.609,�k��,5.6,��
2021/03/30,01:50,0.625,0.911,0.582,1.119,0.791,0.371,0.649,0.610,�k��,5.1,��
2021/03/30,02:00,0.626,0.913,0.583,1.120,0.790,0.371,0.648,0.610,���k��,4.1,��
2021/03/30,02:10,0.626,0.910,0.585,1.119,0.790,0.372,0.648,0.610,�k��,2.6,��
2021/03/30,02:20,0.624,0.912,0.583,1.119,0.792,0.371,0.649,0.609,���k��,2.3,��
2021/03/30,02:30,0.627,0.912,0.584,1.120,0.793,0.370,0.649,0.610,���k��,1.7,��
2021/03/30,02:40,0.628,0.912,0.584,1.122,0.794,0.372,0.648,0.610,�k�k��,2.3,��
2021/03/30,02:50,0.625,0.914,0.582,1.120,0.793,0.370,0.649,0.609,�k��,3.2,��
2021/03/30,03:00,0.627,0.911,0.584,1.120,0.793,0.372,0.648,0.609,�k��,4.0,��
2021/03/30,03:10,0.626,0.911,0.582,1.119,0.795,0.371,0.648,0.609,�k��,3.8,��
2021/03/30,03:20,0.625,0.911,0.583,1.120,0.791,0.371,0.649,0.610,�k��,3.6,��
2021/03/30,03:30,0.626,0.910,0.583,1.123,0.793,0.371,0.649,0.609,�k��,3.5,��
2021/03/30,03:40,0.626,0.912,0.584,1.123,0.792,0.371,0.649,0.609,�k��,3.3,��
2021/03/30,03:50,0.627,0.912,0.581,1.121,0.791,0.371,0.649,0.609,�k��,3.0,��
2021/03/30,04:00,0.626,0.912,0.584,1.122,0.792,0.370,0.649,0.609,��,2.2,��
2021/03/30,04:10,0.626,0.912,0.583,1.120,0.793,0.371,0.648,0.610,���쐼,2.6,��
2021/03/30,04:20,0.627,0.909,0.584,1.121,0.792,0.373,0.650,0.610,���쐼,2.3,��
2021/03/30,04:30,0.625,0.910,0.583,1.121,0.792,0.369,0.649,0.609,��,1.2,��
2021/03/30,04:40,0.624,0.912,0.584,1.122,0.792,0.372,0.648,0.609,�k�k��,2.0,��
2021/03/30,04:50,0.626,0.913,0.583,1.120,0.791,0.371,0.649,0.608,�k��,1.9,��
2021/03/30,05:00,0.624,0.909,0.581,1.122,0.791,0.370,0.649,0.611,�k��,1.4,��
2021/03/30,05:10,0.626,0.911,0.582,1.122,0.794,0.371,0.647,0.609,�k�k��,3.5,��
2021/03/30,05:20,0.624,0.912,0.583,1.122,0.793,0.370,0.649,0.610,�k��,3.9,��
2021/03/30,05:30,0.626,0.912,0.582,1.124,0.793,0.370,0.648,0.609,�k��,4.8,��
2021/03/30,05:40,0.625,0.913,0.583,1.124,0.792,0.370,0.648,0.610,�k��,5.3,��
2021/03/30,05:50,0.625,0.911,0.582,1.122,0.792,0.370,0.649,0.609,�k��,4.9,��
2021/03/30,06:00,0.626,0.912,0.583,1.121,0.793,0.370,0.650,0.608,�k��,5.5,��
2021/03/30,06:10,0.624,0.911,0.582,1.121,0.791,0.371,0.651,0.608,�k�k��,4.1,��
2021/03/30,06:20,0.624,0.912,0.582,1.124,0.793,0.370,0.650,0.608,�k,3.2,��
2021/03/30,06:30,0.625,0.914,0.582,1.124,0.793,0.370,0.648,0.608,�k,3.4,��
2021/03/30,06:40,0.626,0.913,0.583,1.125,0.792,0.370,0.649,0.609,�k�k��,4.3,��
2021/03/30,06:50,0.627,0.914,0.583,1.124,0.794,0.370,0.649,0.611,�k�k��,4.6,��
2021/03/30,07:00,0.626,0.912,0.581,1.121,0.793,0.370,0.649,0.608,�k�k��,5.3,��
2021/03/30,07:10,0.628,0.912,0.582,1.122,0.794,0.370,0.648,0.611,�k�k��,5.2,��
2021/03/30,07:20,0.625,0.912,0.583,1.122,0.795,0.369,0.647,0.610,�k�k��,5.0,��
2021/03/30,07:30,0.625,0.912,0.583,1.122,0.795,0.370,0.648,0.609,�k�k��,6.3,��
2021/03/30,07:40,0.627,0.913,0.583,1.123,0.793,0.370,0.646,0.608,�k�k��,5.8,��
2021/03/30,07:50,0.626,0.912,0.583,1.122,0.794,0.370,0.647,0.608,�k�k��,5.5,��
2021/03/30,08:00,0.627,0.911,0.583,1.124,0.793,0.370,0.647,0.610,�k�k��,5.4,��
2021/03/30,08:10,0.626,0.911,0.583,1.124,0.792,0.370,0.647,0.610,�k,5.2,��
2021/03/30,08:20,0.626,0.912,0.585,1.124,0.792,0.369,0.646,0.609,�k�k��,4.3,��
2021/03/30,08:30,0.626,0.913,0.584,1.124,0.792,0.368,0.646,0.608,�k�k��,4.5,��
2021/03/30,08:40,0.625,0.909,0.583,1.122,0.792,0.369,0.649,0.610,�k,4.4,��
2021/03/30,08:50,0.625,0.913,0.584,1.125,0.793,0.368,0.647,0.609,�k�k��,4.1,��
2021/03/30,09:00,0.626,0.910,0.583,1.124,0.792,0.369,0.650,0.608,�k,2.9,��
2021/03/30,09:10,0.626,0.911,0.585,1.125,0.792,0.370,0.648,0.607,�k�k��,3.0,��
2021/03/30,09:20,0.626,0.910,0.581,1.124,0.792,0.368,0.646,0.607,�k�k��,2.8,��
2021/03/30,09:30,0.626,0.911,0.583,1.127,0.793,0.369,0.648,0.608,�k��,3.2,��
2021/03/30,09:40,0.626,0.910,0.583,1.126,0.794,0.369,0.649,0.609,�k��,2.6,��
2021/03/30,09:50,0.624,0.909,0.585,1.127,0.796,0.369,0.647,0.608,���k��,2.8,��
2021/03/30,10:00,0.625,0.911,0.583,1.127,0.795,0.369,0.648,0.607,���k��,3.1,��
2021/03/30,10:10,0.627,0.912,0.585,1.126,0.793,0.369,0.648,0.608,���k��,2.0,��
2021/03/30,10:20,0.626,0.913,0.584,1.127,0.794,0.368,0.648,0.608,�k�k��,1.4,��
2021/03/30,10:30,0.623,0.911,0.582,1.125,0.794,0.369,0.650,0.609,�k��,1.5,��
2021/03/30,10:40,0.625,0.910,0.583,1.126,0.794,0.368,0.649,0.608,�k�k��,1.5,��
2021/03/30,10:50,0.626,0.913,0.584,1.127,0.793,0.368,0.648,0.607,�k�k��,1.7,��
2021/03/30,11:00,0.626,0.913,0.583,1.128,0.793,0.369,0.649,0.606,�k��,1.5,��
2021/03/30,11:10,0.626,0.914,0.584,1.126,0.796,0.368,0.650,0.608,�k��,2.6,��
2021/03/30,11:20,0.624,0.916,0.583,1.128,0.795,0.369,0.650,0.607,�k��,2.0,��
2021/03/30,11:30,0.626,0.914,0.583,1.129,0.795,0.368,0.649,0.609,�k��,1.7,��
2021/03/30,11:40,0.627,0.915,0.583,1.128,0.795,0.369,0.650,0.609,�k��,2.5,�L
2021/03/30,11:50,0.627,0.915,0.584,1.130,0.795,0.369,0.650,0.608,�k��,2.3,��
2021/03/30,12:00,0.627,0.917,0.581,1.128,0.796,0.370,0.651,0.608,���k��,2.0,��
2021/03/30,12:10,0.625,0.916,0.582,1.127,0.797,0.369,0.652,0.608,���k��,3.0,��
2021/03/30,12:20,0.627,0.918,0.582,1.129,0.796,0.369,0.652,0.607,���k��,3.3,��
2021/03/30,12:30,0.627,0.917,0.583,1.130,0.798,0.369,0.650,0.609,�k��,2.6,��
2021/03/30,12:40,0.627,0.917,0.583,1.128,0.797,0.369,0.650,0.608,���k��,3.2,��
2021/03/30,12:50,0.628,0.920,0.585,1.131,0.796,0.371,0.651,0.610,���k��,3.8,��
2021/03/30,13:00,0.629,0.919,0.584,1.130,0.795,0.372,0.649,0.608,���k��,4.4,��
2021/03/30,13:10,0.629,0.916,0.585,1.131,0.798,0.370,0.651,0.607,���k��,1.7,��
2021/03/30,13:20,0.628,0.919,0.585,1.131,0.798,0.370,0.651,0.610,��,3.1,��
2021/03/30,13:30,0.628,0.918,0.585,1.129,0.799,0.370,0.650,0.609,��,3.5,��
2021/03/30,13:40,0.627,0.918,0.584,1.131,0.799,0.371,0.650,0.610,��,3.5,��
2021/03/30,13:50,0.627,0.919,0.584,1.132,0.799,0.370,0.651,0.611,��,3.9,��
2021/03/30,14:00,0.628,0.917,0.584,1.131,0.798,0.371,0.649,0.609,��,3.7,��
2021/03/30,14:10,0.627,0.918,0.583,1.130,0.800,0.370,0.650,0.607,���k��,2.8,��
2021/03/30,14:20,0.628,0.920,0.584,1.130,0.799,0.371,0.651,0.608,��,2.9,��
2021/03/30,14:30,0.628,0.918,0.583,1.131,0.799,0.371,0.649,0.609,���k��,3.2,��
2021/03/30,14:40,0.629,0.918,0.585,1.132,0.800,0.370,0.651,0.608,���k��,4.4,��
2021/03/30,14:50,0.629,0.917,0.585,1.133,0.801,0.370,0.652,0.610,���k��,2.8,��
2021/03/30,15:00,0.630,0.918,0.584,1.131,0.800,0.370,0.650,0.609,���k��,3.2,��
2021/03/30,15:10,0.629,0.918,0.584,1.132,0.797,0.370,0.651,0.609,�k��,2.6,��
2021/03/30,15:20,0.631,0.914,0.585,1.132,0.799,0.371,0.651,0.609,���k��,1.2,��
2021/03/30,15:30,0.629,0.918,0.584,1.133,0.798,0.369,0.650,0.608,���k��,2.0,��
2021/03/30,15:40,0.629,0.917,0.584,1.132,0.800,0.370,0.650,0.609,��,3.9,��
2021/03/30,15:50,0.628,0.918,0.584,1.133,0.798,0.371,0.651,0.609,��,4.2,��
2021/03/30,16:00,0.628,0.918,0.582,1.132,0.801,0.371,0.651,0.608,���k��,4.2,��
2021/03/30,16:10,0.628,0.919,0.584,1.133,0.800,0.372,0.651,0.609,���k��,3.5,��
2021/03/30,16:20,0.628,0.920,0.583,1.132,0.800,0.370,0.649,0.610,���k��,3.6,��
2021/03/30,16:30,0.628,0.920,0.585,1.132,0.800,0.371,0.650,0.609,�k��,3.2,��
2021/03/30,16:40,0.628,0.920,0.585,1.132,0.799,0.371,0.649,0.610,�k��,3.4,��
2021/03/30,16:50,0.628,0.920,0.584,1.133,0.802,0.372,0.650,0.611,�k��,2.8,��
2021/03/30,17:00,0.628,0.921,0.586,1.132,0.799,0.371,0.651,0.609,�k��,3.5,��
2021/03/30,17:10,0.628,0.923,0.586,1.133,0.799,0.371,0.651,0.610,�k��,3.3,��
2021/03/30,17:20,0.628,0.921,0.586,1.132,0.802,0.373,0.651,0.609,�k��,3.4,��
2021/03/30,17:30,0.628,0.922,0.587,1.133,0.800,0.371,0.650,0.612,�k�k��,3.2,��
2021/03/30,17:40,0.630,0.923,0.587,1.131,0.802,0.374,0.649,0.612,�k�k��,3.6,��
2021/03/30,17:50,0.630,0.924,0.587,1.132,0.802,0.373,0.651,0.610,�k�k��,2.9,��
2021/03/30,18:00,0.630,0.922,0.587,1.132,0.802,0.372,0.652,0.611,�k�k��,2.9,��
2021/03/30,18:10,0.631,0.922,0.587,1.133,0.802,0.372,0.649,0.610,�k�k��,2.3,��
2021/03/30,18:20,0.632,0.923,0.587,1.132,0.803,0.373,0.650,0.611,�k,2.8,��
2021/03/30,18:30,0.631,0.920,0.587,1.132,0.804,0.372,0.652,0.612,�k,3.1,��
2021/03/30,18:40,0.630,0.924,0.586,1.135,0.803,0.374,0.651,0.613,�k,3.4,��
2021/03/30,18:50,0.632,0.923,0.587,1.133,0.803,0.372,0.651,0.609,�k�k��,3.4,��
2021/03/30,19:00,0.632,0.923,0.588,1.132,0.801,0.372,0.651,0.612,�k�k��,4.5,��
2021/03/30,19:10,0.631,0.925,0.588,1.132,0.803,0.371,0.650,0.611,�k�k��,4.4,��
2021/03/30,19:20,0.632,0.923,0.587,1.136,0.804,0.372,0.651,0.612,�k,3.1,��
2021/03/30,19:30,0.632,0.922,0.587,1.133,0.802,0.373,0.650,0.613,�k��,4.3,��
2021/03/30,19:40,0.631,0.924,0.587,1.133,0.802,0.372,0.652,0.613,�k�k��,4.0,��
2021/03/30,19:50,0.630,0.924,0.586,1.133,0.802,0.373,0.652,0.612,�k�k��,3.6,��
2021/03/30,20:00,0.630,0.921,0.586,1.134,0.803,0.372,0.651,0.612,�k�k��,4.0,��
2021/03/30,20:10,0.631,0.923,0.587,1.133,0.805,0.373,0.652,0.612,�k��,3.8,��
2021/03/30,20:20,0.633,0.925,0.587,1.134,0.803,0.373,0.650,0.613,�k�k��,4.9,��
2021/03/30,20:30,0.629,0.923,0.587,1.134,0.803,0.372,0.652,0.612,�k�k��,6.1,��
2021/03/30,20:40,0.629,0.922,0.589,1.134,0.805,0.374,0.651,0.612,�k�k��,6.9,��
2021/03/30,20:50,0.631,0.925,0.587,1.134,0.803,0.372,0.652,0.613,�k�k��,7.0,��
2021/03/30,21:00,0.631,0.924,0.586,1.133,0.804,0.372,0.652,0.612,�k�k��,7.1,��
2021/03/30,21:10,0.631,0.924,0.587,1.135,0.804,0.371,0.652,0.613,�k�k��,7.3,��
2021/03/30,21:20,0.631,0.922,0.587,1.133,0.803,0.372,0.651,0.612,�k�k��,6.6,��
2021/03/30,21:30,0.630,0.924,0.586,1.135,0.802,0.372,0.651,0.613,�k�k��,6.5,��
2021/03/30,21:40,0.632,0.925,0.587,1.134,0.805,0.373,0.651,0.613,�k�k��,7.1,��
2021/03/30,21:50,0.629,0.924,0.586,1.132,0.805,0.372,0.652,0.613,�k�k��,7.3,��
2021/03/30,22:00,0.632,0.924,0.588,1.136,0.804,0.372,0.651,0.613,�k�k��,6.9,��
2021/03/30,22:10,0.631,0.923,0.587,1.136,0.803,0.373,0.652,0.614,�k,7.4,��
2021/03/30,22:20,0.630,0.923,0.587,1.136,0.804,0.372,0.653,0.614,�k,7.2,��
2021/03/30,22:30,0.634,0.925,0.588,1.134,0.803,0.375,0.651,0.613,�k,6.9,��
2021/03/30,22:40,0.630,0.923,0.587,1.136,0.803,0.372,0.652,0.616,�k�k��,6.8,��
2021/03/30,22:50,0.631,0.923,0.588,1.135,0.804,0.373,0.650,0.611,�k,5.5,��
2021/03/30,23:00,0.631,0.924,0.586,1.134,0.803,0.373,0.651,0.615,�k�k��,5.4,��
2021/03/30,23:10,0.631,0.924,0.587,1.136,0.804,0.372,0.652,0.612,�k�k��,5.5,��
2021/03/30,23:20,0.632,0.924,0.587,1.136,0.804,0.373,0.650,0.614,�k�k��,6.5,��
2021/03/30,23:30,0.629,0.924,0.587,1.136,0.803,0.372,0.651,0.613,�k�k��,5.6,��
2021/03/30,23:40,0.630,0.923,0.586,1.136,0.804,0.373,0.650,0.614,�k�k��,5.5,��
2021/03/30,23:50,0.630,0.925,0.586,1.136,0.806,0.373,0.651,0.614,�k�k��,6.3,�L
